TITAN 3C TRANSTAGE DEB, 43282

Orbit data source: Space-Track

TITAN 3C TRANSTAGE DEB, 43282 is space debris in GEO originally from a launch on Sun, 09 Feb 1969 UTC launched from the Air Force Eastern Test Range (AFETR). Debris objects in space refer to the collection of defunct objects orbiting the Earth. Examples of debris include non-operational satellites, rocket bodies, and fragments generated from explosions, collisions, or faulty payload assembly.

Loading next visibility...
Identifier
43282, 1969-013C
Orbit
GEO
Last TLE update
1 day ago
Origin
Manufacturer
Martin Marietta
Mission
Spacecraft
Bus & Motor
Unknown
Mass
Unknown
Launch date (UTC)
1969-02-09 (56 years ago)
Launch vehicle
Unknown
Launch site
Air Force Eastern Test Range (AFETR)
Object type
Payload
Rocket body
Debris
Shape & HBR
Unknown
Radar Cross Section
RCS unknown

Expand to show TLE details & history

TLE from 1 day ago
0 TITAN 3C TRANSTAGE DEB
1 43282U 69013C   25127.76112974 -.00000146  00000-0  00000-0 0  9994
2 43282   1.2208  42.9188 0282711 245.1657 111.1957  0.91409597 23887
Epoch: 2025-05-07T18:16Z
Definitive object data (Epoch: 2025-05-07T18:16:01.609Z)
Latitude
-0.00001°
Longitude
-97.59984°
Altitude
38,960.666 km
Speed
2.949 km/s
True Right ascension
02h 48m 59s
True Declination
0° 00' 00"
Sunlit
Object was in daylight at TLE epoch
Visualization TLE readout
Latitude
1.03625°
Longitude
23.08071°
Altitude
39,168.18 km
Speed
2.935 km/s
Apparent Right ascension
10h 32m 48s
Apparent Declination
-4° 23' 51"
Sunlit
Object is in daylight
Visualization observer readout
Local Sidereal Time
13:52:49
Azimuth
238.395° WSW
Elevation
26.252°
Doppler factor
1
Orbital elements
Apogee altitude
39,738.545 km
Perigee altitude
37,202.698 km
Semi-major axis
44,848.759 km
Eccentricity
0.0282711
Inclination
1.2208°
RAAN
42.9188°
Arg. of periapsis
245.1657°
True anomaly
114.1767°
Mean anomaly
111.1957°
Eccentric anomaly
112.69015°
Mean motion
0.22852 °/min
BSTAR
Unknown
Orbital period
1575.38 mins
Loading historical data...
43282 neighbors
Loading maneuver chart data...
Loading SW <> Apogee altitude chart data...

TITAN 3C TRANSTAGE DEB Visibility forecast

Observer location: undefined°, undefined°

Span
Click to sort rows by Start time (UTC) header in descending order
Start Az.
Max El. time (UTC)
Max El. Az.
Max El.
End time (UTC)
End Az.
1172 mins2025-05-09 05:44:06.315Z238.381° WSW2025-05-09 05:44:06.315Z238.381° WSW23.854°2025-05-10 01:16:06.315Z255.156° W
|